Location: Chequamegon National Forest
(46.1070°N, 90.8420°W)
Time: 16:56:53
(UTC-05:00)

ISS - All Passes

Search period start: 24 June 2016 00:00
Search period end: 04 July 2016 00:00
Orbit: 402 x 404 km, 51.6° (Epoch: 24 June)

Date Brightness Start Highest point End Pass type
(mag) Time Alt. Az. Time Alt. Az. Time Alt. Az.
24 Jun - 11:04:06 10° SW 11:07:10 39° SE 11:10:15 10° ENE daylight
24 Jun - 12:40:27 10° W 12:43:36 45° NNW 12:46:47 10° ENE daylight
24 Jun - 14:17:36 10° WNW 14:20:33 29° N 14:23:29 10° ENE daylight
24 Jun - 15:54:10 10° WNW 15:57:25 57° NNE 16:00:39 10° ESE daylight
24 Jun - 17:30:54 10° W 17:33:42 27° SW 17:36:31 10° SSE daylight
25 Jun - 10:11:58 10° SSW 10:14:37 23° SE 10:17:16 10° E daylight
25 Jun - 11:47:35 10° WSW 11:50:50 64° NNW 11:54:05 10° ENE daylight
25 Jun - 13:24:43 10° WNW 13:27:40 30° N 13:30:37 10° ENE daylight
25 Jun - 15:01:29 10° WNW 15:04:37 41° NNE 15:07:45 10° E daylight
25 Jun - 16:37:57 10° WNW 16:41:08 46° SW 16:44:16 10° SE daylight
26 Jun - 09:20:31 10° SSE 09:22:07 13° SE 09:23:45 10° ESE daylight
26 Jun - 10:54:50 10° WSW 10:58:06 81° SSE 11:01:23 10° ENE daylight
26 Jun - 12:31:46 10° WNW 12:34:47 33° N 12:37:49 10° ENE daylight
26 Jun - 14:08:45 10° WNW 14:11:47 33° N 14:14:48 10° ENE daylight
26 Jun - 15:45:11 10° WNW 15:48:28 80° SSW 15:51:44 10° ESE daylight
26 Jun - 17:22:50 10° WSW 17:24:26 13° SW 17:26:03 10° SSW daylight
27 Jun - 10:02:17 10° SW 10:05:25 46° SE 10:08:35 10° ENE daylight
27 Jun - 11:38:48 10° W 11:41:56 41° NNW 11:45:04 10° ENE daylight
27 Jun - 13:15:56 10° WNW 13:18:53 30° N 13:21:50 10° ENE daylight
27 Jun - 14:52:27 10° WNW 14:55:43 65° NNE 14:58:58 10° ESE daylight
27 Jun - 16:29:17 10° W 16:31:56 23° SW 16:34:33 10° SSE daylight
28 Jun - 09:10:01 10° SSW 09:12:48 27° SE 09:15:38 10° E daylight
28 Jun - 10:45:52 10° WSW 10:49:06 57° NNW 10:52:20 10° ENE daylight
28 Jun - 12:23:02 10° WNW 12:25:58 29° N 12:28:54 10° ENE daylight
28 Jun - 13:59:44 10° WNW 14:02:55 45° NNE 14:06:04 10° E daylight
28 Jun - 15:36:15 10° WNW 15:39:20 39° SW 15:42:24 10° SE daylight
29 Jun - 08:18:14 10° S 08:20:16 16° SE 08:22:18 10° E daylight
29 Jun - 09:53:03 10° WSW 09:56:19 87° NNW 09:59:36 10° ENE daylight
29 Jun - 11:30:04 10° WNW 11:33:03 32° N 11:36:03 10° ENE daylight
29 Jun - 13:06:58 10° WNW 13:10:02 35° NNE 13:13:05 10° E daylight
29 Jun - 14:43:23 10° WNW 14:46:39 69° SSW 14:49:54 10° SE daylight
29 Jun - 16:21:38 10° WSW 16:22:34 11° SW 16:23:28 10° SSW daylight
30 Jun - 09:00:23 10° SW 09:03:35 55° SSE 09:06:48 10° ENE daylight
30 Jun - 10:37:03 10° W 10:40:08 38° NNW 10:43:14 10° ENE daylight
30 Jun - 12:14:08 10° WNW 12:17:06 30° N 12:20:04 10° ENE daylight
30 Jun - 13:50:37 10° WNW 13:53:54 74° NNE 13:57:10 10° ESE daylight
30 Jun - 15:27:37 10° W 15:30:02 19° SW 15:32:28 10° S daylight
01 Jul - 08:07:58 10° SSW 08:10:54 31° SE 08:13:51 10° ENE daylight
01 Jul - 09:44:03 10° W 09:47:15 51° NNW 09:50:28 10° ENE daylight
01 Jul - 11:21:13 10° WNW 11:24:09 29° N 11:27:05 10° ENE daylight
01 Jul - 12:57:52 10° WNW 13:01:03 49° NNE 13:04:15 10° E daylight
01 Jul - 14:34:26 10° WNW 14:37:26 33° SW 14:40:24 10° SSE daylight
02 Jul - 07:15:58 10° S 07:18:18 18° SE 07:20:38 10° E daylight
02 Jul - 08:51:08 10° WSW 08:54:24 77° NNW 08:57:42 10° ENE daylight
02 Jul - 10:28:13 10° WNW 10:31:11 31° N 10:34:10 10° ENE daylight
02 Jul - 12:05:04 10° WNW 12:08:09 37° NNE 12:11:14 10° E daylight
02 Jul - 13:41:30 10° WNW 13:44:44 58° SSW 13:47:57 10° SE daylight
03 Jul - 06:25:16 10° SE 06:25:45 10° SE 06:26:14 10° ESE daylight
03 Jul - 07:58:23 10° SW 08:01:37 65° SSE 08:04:52 10° ENE daylight
03 Jul - 09:35:10 10° W 09:38:14 36° NNW 09:41:18 10° ENE daylight
03 Jul - 11:12:13 10° WNW 11:15:12 31° N 11:18:11 10° ENE daylight
03 Jul - 12:48:40 10° WNW 12:51:57 84° NNE 12:55:13 10° ESE daylight
03 Jul - 14:25:52 10° W 14:28:01 16° SW 14:30:10 10° S daylight
